Location: Unspecified
(43.4680°N, 87.1740°E)
Time: 14:07:11
(UTC+00:00)

Cosmos 1356 Rocket - Pass Details

Date: 31 July 2021
Orbit: 543 x 597 km, 81.2° (Epoch: 19 September)

Event Time Altitude Azimuth Distance (km) Brightness Sun altitude
Exits shadow 20:11:10 74° 323° (NW) 573 3.3 -23.2°
Drops below altitude 10° 20:14:55 10° 7° (N) 1,819 6.9 -22.9°
Sets 20:17:06 0° 9° (N) 2,716 8.0 -22.7°
